EW4196 Weather Reports


Display with metric or nautical units.
time (UTC)temp
F
wind
direction
speed
MPH
gust
MPH
rain 1hr
in
rain 24hr
in
rain mn
in
humidity
%
barometer
mb
20260902230020 101 94 0.0 4.0 0.00 0.00 0.00 33 1010.0
20260902224527 101 139 0.0 7.0 0.00 0.00 0.00 34 1010.1
20260902223024 101 132 0.0 7.0 0.00 0.00 0.00 34 1010.2
20260902221518 101 123 0.0 7.0 0.00 0.00 0.00 34 1010.2
20260902220014 100 135 0.0 5.0 0.00 0.00 0.00 34 1010.3
20260902214512 100 96 1.0 8.0 0.00 0.00 0.00 34 1010.4
20260902213010 100 126 1.0 5.0 0.00 0.00 0.00 34 1010.5
20260902211511 100 101 0.0 8.0 0.00 0.00 0.00 34 1010.7
20260902210008 100 140 0.0 12.0 0.00 0.00 0.00 33 1010.9
20260902204509 100 178 1.0 5.0 0.00 0.00 0.00 35 1011.1
20260902203005 100 98 4.0 11.0 0.00 0.00 0.00 36 1011.2
20260902201502 100 101 0.0 12.0 0.00 0.00 0.00 35 1011.4
20260902200134 99 154 2.0 9.0 0.00 0.00 0.00 36 1011.7
20260902194557 99 127 0.0 9.0 0.00 0.00 0.00 39 1011.8
20260902193056 100 105 2.0 9.0 0.00 0.00 0.00 38 1012.1
20260902191554 100 132 0.0 8.0 0.00 0.00 0.00 38 1012.4
20260902190100 99 96 2.0 8.0 0.00 0.00 0.00 37 1012.8
20260902184549 100 99 1.0 6.0 0.00 0.00 0.00 37 1012.9
20260902183051 99 120 0.0 8.0 0.00 0.00 0.00 38 1013.1
20260902181547 99 137 1.0 6.0 0.00 0.00 0.00 40 1013.4
20260902180043 98 133 0.0 7.0 0.00 0.00 0.00 43 1013.5
20260902174541 98 139 0.0 7.0 0.00 0.00 0.00 43 1013.7
20260902173038 97 91 3.0 8.0 0.00 0.00 0.00 42 1014.0
20260902171536 97 128 1.0 4.0 0.00 0.00 0.00 46 1014.3
20260902170033 96 141 3.0 8.0 0.00 0.00 0.00 46 1014.4
20260902164530 96 134 0.0 4.0 0.00 0.00 0.00 47 1014.6
20260902163027 95 138 0.0 3.0 0.00 0.00 0.00 49 1014.8
20260902161522 94 139 0.0 4.0 0.00 0.00 0.00 50 1014.8
20260902160018 93 127 0.0 3.0 0.00 0.00 0.00 52 1014.8
20260902154517 93 133 0.0 5.0 0.00 0.00 0.00 52 1014.9
20260902153010 91 133 0.0 4.0 0.00 0.00 0.00 55 1014.9
20260902151506 90 141 0.0 4.0 0.00 0.00 0.00 56 1014.9
20260902150006 89 131 0.0 2.0 0.00 0.00 0.00 57 1015.0
20260902144602 88 122 0.0 4.0 0.00 0.00 0.00 60 1015.1
20260902143055 86 98 0.0 6.0 0.00 0.00 0.00 62 1015.2
20260902141553 84 134 0.0 4.0 0.00 0.00 0.00 65 1015.1
20260902140049 83 109 0.0 2.0 0.00 0.00 0.00 68 1015.1
20260902134546 82 101 0.0 5.0 0.00 0.00 0.00 69 1015.0
20260902133047 81 96 0.0 5.0 0.00 0.00 0.00 70 1015.1
20260902131544 80 96 0.0 2.0 0.00 0.00 0.00 73 1015.0
20260902130043 78 96 1.0 3.0 0.00 0.00 0.00 75 1015.0
20260902124552 77 98 0.0 2.0 0.00 0.00 0.00 77 1015.0
20260902123043 76 96 0.0 1.0 0.00 0.00 0.00 78 1014.7
20260902121538 76 96 0.0 0.0 0.00 0.00 0.00 77 1014.6
20260902120036 76 96 0.0 0.0 0.00 0.00 0.00 77 1014.5
20260902114536 75 96 0.0 0.0 0.00 0.00 0.00 78 1014.3
20260902113030 75 96 0.0 0.0 0.00 0.00 0.00 77 1014.2
20260902111537 76 96 0.0 0.0 0.00 0.00 0.00 76 1014.1
20260902110030 76 96 0.0 0.0 0.00 0.00 0.00 75 1014.0
20260902104536 76 96 0.0 0.0 0.00 0.00 0.00 74 1014.0
20260902103019 77 96 0.0 0.0 0.00 0.00 0.00 73 1013.9
20260902101516 78 96 0.0 0.0 0.00 0.00 0.00 71 1013.9
20260902100012 79 96 0.0 0.0 0.00 0.00 0.00 69 1013.8
20260902094518 80 96 0.0 0.0 0.00 0.00 0.00 67 1013.7
20260902093008 80 94 0.0 1.0 0.00 0.00 0.00 67 1013.3
20260902091508 81 101 0.0 0.0 0.00 0.00 0.00 66 1013.5
20260902090007 82 94 1.0 5.0 0.00 0.00 0.00 65 1013.2
20260902084506 82 104 2.0 4.0 0.00 0.00 0.00 62 1013.2
20260902083005 83 94 0.0 3.0 0.00 0.00 0.00 62 1013.4
20260902081513 83 98 1.0 3.0 0.00 0.00 0.00 61 1013.4
20260902080005 83 96 0.0 3.0 0.00 0.00 0.00 60 1013.5
20260902074502 83 115 0.0 1.0 0.00 0.00 0.00 60 1013.4
20260902073001 83 104 0.0 2.0 0.00 0.00 0.00 60 1013.5
20260902071601 82 134 0.0 1.0 0.00 0.00 0.00 60 1013.4
20260902064604 79 94 0.0 0.0 0.00 0.00 0.00 66 1013.4
20260902063054 79 94 0.0 0.0 0.00 0.00 0.00 68 1013.4
20260902060052 79 94 0.0 0.0 0.00 0.00 0.00 68 1013.2
20260902054558 80 94 0.0 0.0 0.00 0.00 0.00 67 1013.1
20260902053047 80 94 0.0 0.0 0.00 0.00 0.00 67 1013.1
20260902051546 80 94 0.0 0.0 0.00 0.00 0.00 65 1013.0
20260902050043 81 94 0.0 0.0 0.00 0.00 0.00 64 1013.0
20260902044541 82 94 0.0 0.0 0.00 0.00 0.00 63 1012.8
20260902043040 83 94 0.0 0.0 0.00 0.00 0.00 62 1012.8
20260902041545 83 94 0.0 0.0 0.00 0.00 0.00 60 1012.7
20260902040039 84 94 0.0 0.0 0.00 0.00 0.00 59 1012.7
20260902034539 86 94 0.0 0.0 0.00 0.00 0.00 57 1012.7
20260902033043 87 94 0.0 0.0 0.00 0.00 0.00 53 1012.5
20260902031537 88 94 0.0 0.0 0.00 0.00 0.00 50 1012.3
20260902030037 89 94 0.0 1.0 0.00 0.00 0.00 48 1012.2
20260902024537 89 98 0.0 1.0 0.00 0.00 0.00 47 1012.1
20260902023036 90 96 0.0 1.0 0.00 0.00 0.00 46 1011.8
20260902021544 90 96 0.0 2.0 0.00 0.00 0.00 45 1011.5
20260902020035 90 98 0.0 1.0 0.00 0.00 0.00 46 1011.3
20260902014539 91 94 0.0 0.0 0.00 0.00 0.00 44 1011.2
20260902013034 92 94 0.0 0.0 0.00 0.00 0.00 42 1011.1
20260902011538 93 96 0.0 1.0 0.00 0.00 0.00 40 1011.0
20260902010053 94 101 0.0 2.0 0.00 0.00 0.00 38 1011.0
20260902004540 95 99 0.0 1.0 0.00 0.00 0.00 38 1011.0
20260902003032 96 98 0.0 2.0 0.00 0.00 0.00 36 1011.0
20260902001531 97 130 0.0 1.0 0.00 0.00 0.00 35 1011.2
20260902000045 98 99 0.0 2.0 0.00 0.00 0.00 34 1011.2
20260901234554 99 95 0.0 7.0 0.00 0.00 0.00 32 1011.3
20260901233028 101 101 0.0 3.0 0.00 0.00 0.00 31 1011.4
20260901231543 103 136 0.0 1.0 0.00 0.00 0.00 30 1011.5